{"data":{"norad_id":59014,"epoch":"2026-09-20T16:34:56.099712Z","epoch_age_seconds":138953,"freshness":"FRESH","line1":"1 59014U 24036S   26263.69092708 -.00000030  00000+0  10785-4 0  9992","line2":"2 59014  53.1587 252.0205 0001081  96.3733 263.7391 15.31699012145184","mean_motion":15.31699012,"eccentricity":0.0001081,"inclination_deg":53.1587,"raan_deg":252.0205,"arg_perigee_deg":96.3733,"mean_anomaly_deg":263.7391,"bstar":1.0785e-5,"rev_number":14518,"period_min":94.013248602918,"perigee_km":470.00257648226,"apogee_km":471.48330432538,"semimajor_km":6848.8799404038,"source":"CELESTRAK","updated_at":"2026-09-21T09:00:34.026267Z"}}